FW8055 Weather Reports


Display with metric or nautical units.
time (UTC)temp
F
wind
direction
speed
MPH
gust
MPH
rain 1hr
in
rain 24hr
in
rain mn
in
humidity
%
barometer
mb
20260508110056 46 0 0.0 0.0 0.00 0.00 0.00 87 1020.1
20260508104544 47 0 0.0 0.0 0.00 0.00 0.00 87 1019.9
20260508103051 48 0 0.0 0.0 0.00 0.00 0.00 86 1019.7
20260508101554 48 0 0.0 1.0 0.00 0.00 0.00 87 1019.6
20260508100056 48 0 0.0 2.0 0.00 0.00 0.00 87 1019.4
20260508094548 48 0 0.0 0.0 0.00 0.00 0.00 86 1019.2
20260508093046 48 0 0.0 0.0 0.00 0.00 0.00 86 1019.0
20260508091604 49 0 0.0 0.0 0.00 0.00 0.00 86 1018.9
20260508090052 49 0 0.0 1.0 0.00 0.00 0.00 86 1018.9
20260508084547 49 0 0.0 0.0 0.00 0.00 0.00 85 1018.8
20260508083050 49 0 0.0 0.0 0.00 0.00 0.00 85 1018.7
20260508081607 49 0 0.0 1.0 0.00 0.00 0.00 84 1018.5
20260508080048 49 0 0.0 0.0 0.00 0.00 0.00 82 1018.5
20260508074544 50 0 0.0 0.0 0.00 0.00 0.00 80 1018.4
20260508073046 51 0 0.0 0.0 0.00 0.00 0.00 79 1018.3
20260508071545 52 0 0.0 0.0 0.00 0.00 0.00 77 1018.2
20260508070050 54 0 0.0 0.0 0.00 0.00 0.00 77 1018.0
20260508064543 55 0 0.0 0.0 0.00 0.00 0.00 76 1017.9
20260508063054 56 0 0.0 2.0 0.00 0.00 0.00 73 1018.0
20260508061549 56 0 0.0 1.0 0.00 0.00 0.00 73 1018.1
20260508060100 56 0 0.0 0.0 0.00 0.00 0.00 70 1018.1
20260508054633 57 0 0.0 1.0 0.00 0.00 0.00 68 1018.1
20260508053052 57 0 0.0 2.0 0.00 0.00 0.00 67 1017.9
20260508051549 57 0 0.0 2.0 0.00 0.00 0.00 67 1017.8
20260508050050 58 0 0.0 0.0 0.00 0.00 0.00 73 1017.8
20260508044547 58 0 0.0 1.0 0.00 0.00 0.00 77 1017.7
20260508043042 59 0 0.0 2.0 0.00 0.00 0.00 77 1017.5
20260508041545 60 0 0.0 0.0 0.00 0.00 0.00 75 1017.3
20260508040049 60 0 0.0 1.0 0.00 0.00 0.00 74 1017.1
20260508034552 61 0 0.0 1.0 0.00 0.00 0.00 73 1016.7
20260508033047 63 0 0.0 1.0 0.00 0.00 0.00 70 1016.4
20260508031552 64 0 0.0 0.0 0.00 0.00 0.00 67 1016.1
20260508030047 65 0 0.0 0.0 0.00 0.00 0.00 64 1016.0
20260508024554 66 0 0.0 0.0 0.00 0.00 0.00 58 1015.9
20260508023045 68 299 0.0 1.0 0.00 0.00 0.00 56 1015.9
20260508021540 69 299 0.0 1.0 0.00 0.00 0.00 54 1015.9
20260508020048 70 0 0.0 1.0 0.00 0.00 0.00 52 1016.0
20260508014542 72 0 0.0 3.0 0.00 0.00 0.00 49 1016.1
20260508013046 72 32 0.0 1.0 0.00 0.00 0.00 49 1016.3
20260508011542 72 34 1.0 3.0 0.00 0.00 0.00 46 1016.4
20260508010052 72 92 0.0 4.0 0.00 0.00 0.00 44 1016.6
20260508004548 72 26 0.0 4.0 0.00 0.00 0.00 45 1016.7
20260508003053 71 0 0.0 3.0 0.00 0.00 0.00 46 1016.8
20260508001543 71 0 1.0 3.0 0.00 0.00 0.00 43 1016.8
20260508000049 71 69 2.0 4.0 0.00 0.00 0.00 47 1017.0
20260507234549 71 19 2.0 5.0 0.00 0.00 0.00 46 1017.3
20260507233053 71 5 1.0 5.0 0.00 0.00 0.00 51 1017.4
20260507231551 70 53 0.0 5.0 0.00 0.00 0.00 55 1017.5
20260507230047 70 30 2.0 7.0 0.00 0.00 0.00 57 1017.6
20260507224549 70 259 1.0 8.0 0.00 0.00 0.00 57 1017.9
20260507223048 70 39 1.0 6.0 0.00 0.00 0.00 60 1018.0
20260507221544 69 0 2.0 6.0 0.00 0.00 0.00 59 1018.3
20260507220046 68 34 1.0 7.0 0.00 0.00 0.00 60 1018.5
20260507214548 67 18 2.0 6.0 0.00 0.00 0.00 62 1018.6
20260507213048 66 96 3.0 7.0 0.00 0.00 0.00 63 1018.7
20260507211552 66 360 1.0 7.0 0.00 0.00 0.00 63 1018.9
20260507210041 65 17 2.0 5.0 0.00 0.00 0.00 64 1019.1
20260507204542 65 51 2.0 6.0 0.00 0.00 0.00 66 1019.4
20260507203046 64 38 1.0 5.0 0.00 0.00 0.00 65 1019.5
20260507201546 64 229 1.0 5.0 0.00 0.00 0.00 69 1019.7
20260507200046 63 0 1.0 5.0 0.00 0.00 0.00 71 1019.8
20260507194548 62 201 1.0 5.0 0.00 0.00 0.00 70 1020.0
20260507193043 61 0 0.0 4.0 0.00 0.00 0.00 72 1020.0
20260507191542 61 0 1.0 4.0 0.00 0.00 0.00 74 1020.1
20260507190047 60 19 1.0 4.0 0.00 0.00 0.00 75 1020.2
20260507184547 59 36 0.0 3.0 0.00 0.00 0.00 76 1020.3
20260507183050 58 17 0.0 3.0 0.00 0.00 0.00 78 1020.3
20260507181547 58 0 0.0 3.0 0.00 0.00 0.00 77 1020.4
20260507180052 58 352 0.0 3.0 0.00 0.00 0.00 79 1020.4
20260507174605 57 5 0.0 3.0 0.00 0.00 0.00 81 1020.6
20260507173047 56 42 1.0 3.0 0.00 0.00 0.00 81 1020.6
20260507171602 56 0 0.0 2.0 0.00 0.00 0.00 83 1020.6
20260507170046 55 0 0.0 2.0 0.00 0.00 0.00 84 1020.5
20260507164551 55 360 0.0 2.0 0.00 0.00 0.00 84 1020.5
20260507163051 54 294 0.0 3.0 0.00 0.00 0.00 86 1020.6
20260507161545 54 16 0.0 3.0 0.00 0.00 0.00 86 1020.5
20260507160049 54 16 0.0 3.0 0.00 0.00 0.00 87 1020.8
20260507154547 53 0 0.0 3.0 0.00 0.00 0.00 88 1020.9
20260507153053 53 31 0.0 2.0 0.00 0.00 0.00 88 1020.8
20260507151544 53 5 0.0 3.0 0.00 0.00 0.00 89 1020.8
20260507150043 53 0 0.0 2.0 0.00 0.00 0.00 90 1020.7
20260507144552 52 0 0.0 0.0 0.00 0.00 0.00 91 1020.8
20260507143045 52 0 0.0 2.0 0.00 0.00 0.00 90 1020.7
20260507141547 52 0 0.0 2.0 0.00 0.00 0.00 90 1020.7
20260507140101 52 0 0.0 0.0 0.00 0.00 0.00 90 1020.4
20260507134545 52 0 0.0 0.0 0.00 0.00 0.00 90 1020.4
20260507133043 52 0 0.0 0.0 0.00 0.00 0.00 90 1020.5
20260507131543 52 0 0.0 1.0 0.00 0.00 0.00 90 1020.4
20260507124558 52 0 0.0 0.0 0.00 0.00 0.00 90 1020.6
20260507123043 52 0 0.0 0.0 0.00 0.00 0.00 90 1020.6
20260507121545 52 0 0.0 0.0 0.00 0.00 0.00 90 1020.7
20260507120043 52 0 0.0 0.0 0.00 0.00 0.00 89 1020.8
20260507114604 52 0 0.0 0.0 0.00 0.00 0.00 89 1020.9
20260507113047 52 0 0.0 0.0 0.00 0.00 0.00 89 1021.0
20260507111545 52 0 0.0 0.0 0.00 0.00 0.00 88 1021.0